Location: Unspecified
(0.0000°N, 0.0000°E)
Time: 14:38:49
(UTC+00:00)

Vanguard 3 - Pass Details

Date: 05 December 2025
Orbit: 507 x 3207 km, 33.3° (Epoch: 22 January)

Event Time Altitude Azimuth Distance (km) Brightness Sun altitude
Rises 00:38:48 0° 287° (WNW) 4,131 - -64.7°
Reaches altitude 10° 00:41:16 10° 281° (W) 3,452 - -64.4°
Maximum altitude 00:50:10 48° 208° (SSW) 2,462 - -63.3°
Exits shadow 00:56:16 33° 158° (SSE) 3,479 10.3 -62.5°
Drops below altitude 10° 01:05:14 10° 139° (SE) 5,642 11.7 -61.2°
Sets 01:10:37 0° 134° (SE) 6,926 12.3 -60.3°
